Location: Saluda
(35.2377°N, 82.3468°W)
Time: 14:26:42
(UTC+00:00)

SR - Pass Details

Date: 12 October 2022
Orbit: 577 x 875 km, 66.7° (Epoch: 28 November)

Event Time Altitude Azimuth Distance (km) Brightness Sun altitude
Rises 22:16:25 0° 167° (SSE) 3,398 ? 7.5°
Reaches altitude 10° 22:19:26 10° 152° (SSE) 2,493 ? 6.9°
Maximum altitude 22:23:39 21° 105° (ESE) 1,858 ? 6.1°
Drops below altitude 10° 22:27:54 10° 59° (ENE) 2,525 ? 5.2°
Sets 22:30:58 0° 44° (NE) 3,454 ? 4.6°
